Regional Weather Roundup
Issued by NWS Northern Indiana

Home | Current Version | Previous Version | Text Only | Print | Product List | Glossary Off
Versions: 1 2 3 4 5 6 7 8 9 10 11 12 13 14 15 16 17 18 19 20 21 22 23 24 25 26 27 28 29 30 31 32 33 34 35 36 37 38 39 40 41 42 43 44 45 46 47 48 49 50

000
ASUS43 KIWX 010410
RWRIWX

KIWX WEATHER ROUNDUP
NATIONAL WEATHER SERVICE NORTHERN INDIANA
1200 AM EDT SAT AUG 01 2015

NOTE: "FAIR" INDICATES FEW OR NO CLOUDS BELOW 12,000 FEET WITH NO
SIGNIFICANT WEATHER AND/OR OBSTRUCTIONS TO VISIBILITY.

* THESE STATIONS ARE NOT UNDER NWS QUALITY CONTROL. THEY ALSO MAY NOT
  REPORT WEATHER SUCH AS PRECIPITATION OR FOG.

INZ001>027-010500-
NORTHERN INDIANA

CITY           SKY/WX    TMP DP  RH WIND       PRES   REMARKS
GARY*          CLEAR     71  52  51 W7        29.98R
VALPARAISO     CLEAR     69  57  65 W5        29.98S
MICHIGAN CITY* CLEAR     64  61  88 CALM      29.97S
LAPORTE*       CLEAR     62  60  94 CALM      29.98S
KNOX*          CLEAR     61  59  94 CALM      29.97R
SOUTH BEND     CLEAR     63  56  78 W5        29.97R
GOSHEN         CLEAR     62  55  77 CALM      29.96S
MONTICELLO*    CLEAR     66  61  83 W3        29.98R
LOGANSPORT*    CLEAR     61  54  77 CALM      29.99S
ROCHESTER*     CLEAR     68  59  73 CALM      29.98S
WARSAW*        CLEAR     61  57  88 CALM      29.97S
ANGOLA*        CLEAR     63  54  72 CALM      29.96S
FORT WAYNE     CLEAR     65  57  75 W3        29.97S
HUNTINGTON*    CLEAR     66  59  76 CALM      29.97S
PERU/GRISSOM   CLEAR     66  57  73 W5        29.98R
MARION*        CLEAR     63  58  84 W3        29.99R

$$
INZ028>050-010500-
CENTRAL INDIANA

CITY           SKY/WX    TMP DP  RH WIND       PRES   REMARKS
LAFAYETTE      CLEAR     66  62  87 CALM      29.99R
KOKOMO*        CLEAR     66  55  68 W6        29.99R
MUNCIE*        CLEAR     66  59  78 W7        29.99R
INDIANAPOLIS   CLEAR     71  59  65 W8        29.99R

$$
MIZ043>046-050>051-056>058-064>065-071>073-077>080-010500-
SOUTHWEST LOWER MICHIGAN

CITY           SKY/WX    TMP DP  RH WIND       PRES   REMARKS
BATTLE CREEK   CLEAR     66  53  63 W6        29.95R
BENTON HARBOR  CLEAR     62  58  86 CALM      29.95S
COLDWATER*     CLEAR     61  54  77 W3        29.95S
HILLSDALE*     CLEAR     65  52  63 W3        29.95R
HOLLAND        CLEAR     68  60  75 W5        29.94S
GRAND RAPIDS   MOCLDY    69  56  62 W8        29.93R
KALAMAZOO      CLEAR     63  54  72 SW6       29.95S
STURGIS*       CLEAR     61  57  88 CALM      29.95S
THREE RIVERS*  FAIR      62  55  75 CALM      29.95S

$$
OHZ001>008-015>018-024>025-010500-
NORTHWEST OHIO

CITY           SKY/WX    TMP DP  RH WIND       PRES   REMARKS
WAUSEON*       FAIR      63  57  82 W5        29.94R
DEFIANCE       CLEAR     67  54  63 W3        29.95R
FINDLAY        PTCLDY    71  57  61 W7        29.94R
TOLEDO EXPRESS CLEAR     68  54  60 W7        29.92R
TOLEDO METCALF CLEAR     71  52  50 W8        29.92R
LIMA           PTCLDY    68  64  87 W6        29.96R

$$
AND FOR LAKE MICHIGAN COASTAL AND OPEN LAKE BUOY OBSERVATIONS

STATION/POSITION TEMP    WIND        PRES    VSBY  WAVE
                 AIR SEA DIR/SP/G                  HT/PER
                 (F)     (DEG/KT/KT) (MB)    (MI)  (FT/S)
CALUMET HARBOR    77     290/  3/  7   N/A
MICHIGAN CITY     75     290/ 11/ 12   N/A
BURNS HARBOR      75     320/  7/  8 1015.2R
SAINT JOSEPH      74     250/  6/  8 1015.2R
4 MI NW BRIDGMAN  74 74  320/ 10/ 10   N/A           2/ 5
MICHIGAN CITY     75 74  310/  8/ 12   N/A           2/ 5

$$
&&


USA.gov is the U.S. government's official web portal to all federal, state and local government web resources and services.